{"data":{"norad_id":52598,"intl_designator":"2022-052A","name":"STARLINK-4019","alt_names":[],"object_type":"PAYLOAD","status":"ACTIVE","operator":null,"country":"US","launch_date":"2022-05-14","launch_site_code":"AFETR","launch_vehicle":null,"mission":null,"orbit_class":"UNKNOWN","rcs_meters":null,"size_class":null,"mass_kg":null,"dimensions":null,"purposes":["comms"],"wikipedia_slug":null,"has_3d_model":false,"image_url":null,"decayed_at":null,"tle_current":{"epoch":"2026-05-24T20:52:53.916672Z","epoch_age_seconds":80298,"freshness":"FRESH","line1":"1 52598U 22052A   26144.87006848  .00001614  00000+0  11948-3 0  9995","line2":"2 52598  53.2137 302.1332 0001323  80.3086 279.8056 15.08833266223084","mean_motion":15.08833266,"eccentricity":0.0001323,"inclination_deg":53.2137,"raan_deg":302.1332,"arg_perigee_deg":80.3086,"mean_anomaly_deg":279.8056,"bstar":0.00011948,"rev_number":22308,"period_min":95.437980620451,"perigee_km":538.84873388606,"apogee_km":540.6792104833,"semimajor_km":6917.9009721847,"source":"CELESTRAK","updated_at":"2026-05-25T13:38:17.196311Z"}}}